Location: Ar Ranvel
(48.3000°N, 4.8833°W)
Time: 00:42:41
(UTC+00:00)

FALCON 9 DEB - Pass Details

Date: 27 October 2021
Orbit: 417 x 427 km, 53.0° (Epoch: 28 November)

Event Time Altitude Azimuth Distance (km) Brightness Sun altitude
Rises 17:36:43 0° 190° (S) 2,384 7.2 -5.3°
Reaches altitude 10° 17:39:40 10° 162° (SSE) 1,523 5.8 -5.8°
Maximum altitude 17:41:22 13° 132° (SE) 1,342 5.3 -6.1°
Drops below altitude 10° 17:43:04 10° 102° (ESE) 1,529 5.3 -6.4°
Enters shadow 17:43:49 - 93° (E) 1,707 5.5 -6.5°
